Wetterdaten: Montag, 15.10.2007
Datum Zeit Temp. I. Temp. A. Feuchte A. Luftdruck Regen Wind
15.10.2007 00:00 22,0 C 5,6 C 71 % 1018 hPa 0,0 l/m 0,6 km/h (0 Bft)
15.10.2007 00:03 22,0 C 5,5 C 71 % 1018 hPa 0,0 l/m 0,3 km/h (0 Bft)
15.10.2007 00:06 22,0 C 5,4 C 71 % 1018 hPa 0,0 l/m 0,1 km/h (0 Bft)
15.10.2007 00:09 22,0 C 5,4 C 72 % 1018 hPa 0,0 l/m 0,1 km/h (0 Bft)
15.10.2007 00:12 21,9 C 5,4 C 72 % 1018 hPa 0,0 l/m 0,0 km/h (0 Bft)
15.10.2007 00:15 21,9 C 5,4 C 72 % 1018 hPa 0,0 l/m 0,0 km/h (0 Bft)
15.10.2007 00:18 21,9 C 5,2 C 72 % 1018 hPa 0,0 l/m 0,0 km/h (0 Bft)
15.10.2007 00:21 21,9 C 5,1 C 72 % 1018 hPa 0,0 l/m 0,0 km/h (0 Bft)
15.10.2007 00:24 21,9 C 5,1 C 72 % 1018 hPa 0,0 l/m 0,0 km/h (0 Bft)
15.10.2007 00:27 21,9 C 4,9 C 73 % 1018 hPa 0,0 l/m 0,3 km/h (0 Bft)
15.10.2007 00:30 21,9 C 4,8 C 73 % 1018 hPa 0,0 l/m 0,1 km/h (0 Bft)
15.10.2007 00:33 21,9 C 4,7 C 73 % 1018 hPa 0,0 l/m 0,0 km/h (0 Bft)
15.10.2007 00:36 21,9 C 4,7 C 73 % 1018 hPa 0,0 l/m 0,0 km/h (0 Bft)
15.10.2007 00:39 21,9 C 4,7 C 73 % 1018 hPa 0,0 l/m 0,0 km/h (0 Bft)
15.10.2007 00:42 21,9 C 4,7 C 74 % 1018 hPa 0,0 l/m 0,0 km/h (0 Bft)
15.10.2007 00:45 21,9 C 4,6 C 74 % 1018 hPa 0,0 l/m 0,1 km/h (0 Bft)
15.10.2007 00:48 21,8 C 4,5 C 74 % 1018 hPa 0,0 l/m 0,4 km/h (0 Bft)
15.10.2007 00:51 21,9 C 4,4 C 74 % 1018 hPa 0,0 l/m 0,1 km/h (0 Bft)
15.10.2007 00:54 21,8 C 4,4 C 74 % 1018 hPa 0,0 l/m 0,0 km/h (0 Bft)
15.10.2007 00:57 21,8 C 4,4 C 75 % 1018 hPa 0,0 l/m 0,0 km/h (0 Bft)
15.10.2007 01:00 21,8 C 4,4 C 75 % 1018 hPa 0,0 l/m 0,3 km/h (0 Bft)
15.10.2007 01:03 21,8 C 4,4 C 75 % 1018 hPa 0,0 l/m 0,0 km/h (0 Bft)
15.10.2007 01:06 21,8 C 4,4 C 75 % 1018 hPa 0,0 l/m 0,1 km/h (0 Bft)
15.10.2007 01:09 21,8 C 4,4 C 75 % 1018 hPa 0,0 l/m 0,2 km/h (0 Bft)
15.10.2007 01:12 21,8 C 4,4 C 75 % 1018 hPa 0,0 l/m 0,2 km/h (0 Bft)
15.10.2007 01:15 21,8 C 4,4 C 75 % 1018 hPa 0,0 l/m 0,0 km/h (0 Bft)
15.10.2007 01:18 21,8 C 4,4 C 75 % 1018 hPa 0,0 l/m 0,0 km/h (0 Bft)
15.10.2007 01:21 21,8 C 4,4 C 75 % 1018 hPa 0,0 l/m 0,1 km/h (0 Bft)
15.10.2007 01:24 21,8 C 4,3 C 75 % 1018 hPa 0,0 l/m 0,1 km/h (0 Bft)
15.10.2007 01:27 21,8 C 4,3 C 75 % 1018 hPa 0,0 l/m 0,1 km/h (0 Bft)
15.10.2007 01:30 21,8 C 4,3 C 75 % 1018 hPa 0,0 l/m 0,0 km/h (0 Bft)
15.10.2007 01:33 21,8 C 4,2 C 75 % 1018 hPa 0,0 l/m 0,0 km/h (0 Bft)
15.10.2007 01:36 21,8 C 4,1 C 75 % 1018 hPa 0,0 l/m 0,0 km/h (0 Bft)
15.10.2007 01:39 21,8 C 4,1 C 75 % 1018 hPa 0,0 l/m 0,0 km/h (0 Bft)
15.10.2007 01:42 21,8 C 4,0 C 75 % 1018 hPa 0,0 l/m 0,0 km/h (0 Bft)
15.10.2007 01:45 21,8 C 4,0 C 76 % 1018 hPa 0,0 l/m 0,4 km/h (0 Bft)
15.10.2007 01:48 21,8 C 3,9 C 76 % 1018 hPa 0,0 l/m 0,3 km/h (0 Bft)
15.10.2007 01:51 21,8 C 3,9 C 76 % 1018 hPa 0,0 l/m 2,9 km/h (1 Bft)
15.10.2007 01:54 21,8 C 3,9 C 76 % 1018 hPa 0,0 l/m 1,0 km/h (0 Bft)
15.10.2007 01:57 21,8 C 3,9 C 76 % 1018 hPa 0,0 l/m 0,4 km/h (0 Bft)
15.10.2007 02:00 21,8 C 3,9 C 76 % 1018 hPa 0,0 l/m 0,7 km/h (0 Bft)
15.10.2007 02:03 21,8 C 4,0 C 77 % 1018 hPa 0,0 l/m 0,3 km/h (0 Bft)
15.10.2007 02:06 21,8 C 4,1 C 76 % 1018 hPa 0,0 l/m 1,1 km/h (1 Bft)
15.10.2007 02:09 21,8 C 4,2 C 77 % 1018 hPa 0,0 l/m 1,0 km/h (0 Bft)
15.10.2007 02:12 21,8 C 4,2 C 76 % 1018 hPa 0,0 l/m 5,4 km/h (1 Bft)
15.10.2007 02:15 21,8 C 4,3 C 76 % 1018 hPa 0,0 l/m 2,6 km/h (1 Bft)
15.10.2007 02:18 21,8 C 4,3 C 76 % 1018 hPa 0,0 l/m 1,0 km/h (0 Bft)
15.10.2007 02:21 21,8 C 4,4 C 76 % 1018 hPa 0,0 l/m 3,7 km/h (1 Bft)
15.10.2007 02:24 21,8 C 4,4 C 76 % 1018 hPa 0,0 l/m 1,0 km/h (0 Bft)
15.10.2007 02:27 21,8 C 4,4 C 76 % 1018 hPa 0,0 l/m 1,3 km/h (1 Bft)
15.10.2007 02:30 21,8 C 4,4 C 76 % 1018 hPa 0,0 l/m 1,0 km/h (0 Bft)
15.10.2007 02:33 21,8 C 4,4 C 76 % 1018 hPa 0,0 l/m 6,7 km/h (2 Bft)
15.10.2007 02:36 21,8 C 4,4 C 76 % 1018 hPa 0,0 l/m 0,4 km/h (0 Bft)
15.10.2007 02:39 21,8 C 4,4 C 75 % 1018 hPa 0,0 l/m 0,3 km/h (0 Bft)
15.10.2007 02:42 21,8 C 4,4 C 75 % 1018 hPa 0,0 l/m 0,4 km/h (0 Bft)
15.10.2007 02:45 21,8 C 4,4 C 75 % 1018 hPa 0,0 l/m 8,3 km/h (2 Bft)
15.10.2007 02:48 21,8 C 4,3 C 76 % 1018 hPa 0,0 l/m 4,4 km/h (1 Bft)
15.10.2007 02:51 21,8 C 4,3 C 76 % 1018 hPa 0,0 l/m 4,8 km/h (1 Bft)
15.10.2007 02:54 21,8 C 4,3 C 76 % 1018 hPa 0,0 l/m 5,1 km/h (1 Bft)
15.10.2007 02:57 21,8 C 4,3 C 75 % 1018 hPa 0,0 l/m 1,1 km/h (1 Bft)
15.10.2007 03:00 21,8 C 4,3 C 75 % 1018 hPa 0,0 l/m 2,9 km/h (1 Bft)
15.10.2007 03:03 21,8 C 4,3 C 75 % 1018 hPa 0,0 l/m 1,3 km/h (1 Bft)
15.10.2007 03:06 21,8 C 4,3 C 75 % 1018 hPa 0,0 l/m 0,3 km/h (0 Bft)
15.10.2007 03:09 21,8 C 4,3 C 75 % 1018 hPa 0,0 l/m 0,3 km/h (0 Bft)
15.10.2007 03:12 21,8 C 4,3 C 75 % 1017 hPa 0,0 l/m 0,1 km/h (0 Bft)
15.10.2007 03:15 21,8 C 4,3 C 75 % 1017 hPa 0,0 l/m 0,3 km/h (0 Bft)
15.10.2007 03:18 21,8 C 4,2 C 75 % 1017 hPa 0,0 l/m 0,6 km/h (0 Bft)
15.10.2007 03:21 21,7 C 4,1 C 76 % 1017 hPa 0,0 l/m 3,4 km/h (1 Bft)
15.10.2007 03:24 21,8 C 4,1 C 75 % 1017 hPa 0,0 l/m 6,2 km/h (2 Bft)
15.10.2007 03:27 21,7 C 4,1 C 75 % 1017 hPa 0,0 l/m 6,2 km/h (2 Bft)
15.10.2007 03:30 21,7 C 4,0 C 75 % 1017 hPa 0,0 l/m 3,8 km/h (1 Bft)
15.10.2007 03:33 21,7 C 4,1 C 75 % 1017 hPa 0,0 l/m 0,3 km/h (0 Bft)
15.10.2007 03:36 21,7 C 4,1 C 75 % 1017 hPa 0,0 l/m 3,3 km/h (1 Bft)
15.10.2007 03:39 21,7 C 4,1 C 75 % 1017 hPa 0,0 l/m 0,3 km/h (0 Bft)
15.10.2007 03:42 21,7 C 4,1 C 75 % 1017 hPa 0,0 l/m 5,7 km/h (1 Bft)
15.10.2007 03:45 21,7 C 4,1 C 74 % 1017 hPa 0,0 l/m 4,0 km/h (1 Bft)
15.10.2007 03:48 21,7 C 4,1 C 74 % 1017 hPa 0,0 l/m 4,5 km/h (1 Bft)
15.10.2007 03:51 21,7 C 4,1 C 74 % 1017 hPa 0,0 l/m 4,4 km/h (1 Bft)
15.10.2007 03:54 21,7 C 4,1 C 74 % 1017 hPa 0,0 l/m 2,8 km/h (1 Bft)
15.10.2007 03:57 21,7 C 4,1 C 74 % 1017 hPa 0,0 l/m 5,7 km/h (1 Bft)
15.10.2007 04:00 21,7 C 4,1 C 74 % 1017 hPa 0,0 l/m 1,0 km/h (0 Bft)
15.10.2007 04:03 21,7 C 4,0 C 75 % 1017 hPa 0,0 l/m 4,2 km/h (1 Bft)
15.10.2007 04:06 21,7 C 3,9 C 75 % 1017 hPa 0,0 l/m 1,8 km/h (1 Bft)
15.10.2007 04:09 21,7 C 3,9 C 75 % 1017 hPa 0,0 l/m 0,3 km/h (0 Bft)
15.10.2007 04:12 21,7 C 3,9 C 75 % 1017 hPa 0,0 l/m 4,9 km/h (1 Bft)
15.10.2007 04:15 21,7 C 3,9 C 75 % 1017 hPa 0,0 l/m 3,0 km/h (1 Bft)
15.10.2007 04:18 21,7 C 3,8 C 75 % 1017 hPa 0,0 l/m 0,4 km/h (0 Bft)
15.10.2007 04:21 21,7 C 3,8 C 76 % 1017 hPa 0,0 l/m 0,3 km/h (0 Bft)
15.10.2007 04:24 21,7 C 3,7 C 75 % 1017 hPa 0,0 l/m 5,7 km/h (1 Bft)
15.10.2007 04:27 21,7 C 3,7 C 76 % 1017 hPa 0,0 l/m 0,6 km/h (0 Bft)
15.10.2007 04:30 21,7 C 3,7 C 76 % 1017 hPa 0,0 l/m 0,0 km/h (0 Bft)
15.10.2007 04:33 21,7 C 3,6 C 76 % 1017 hPa 0,0 l/m 0,0 km/h (0 Bft)
15.10.2007 04:36 21,6 C 3,5 C 76 % 1017 hPa 0,0 l/m 0,0 km/h (0 Bft)
15.10.2007 04:39 21,6 C 3,4 C 76 % 1017 hPa 0,0 l/m 0,0 km/h (0 Bft)
15.10.2007 04:42 21,6 C 3,4 C 76 % 1017 hPa 0,0 l/m 0,0 km/h (0 Bft)
15.10.2007 04:45 21,6 C 3,4 C 77 % 1017 hPa 0,0 l/m 0,8 km/h (0 Bft)
15.10.2007 04:48 21,6 C 3,4 C 77 % 1017 hPa 0,0 l/m 0,3 km/h (0 Bft)
15.10.2007 04:51 21,6 C 3,4 C 77 % 1017 hPa 0,0 l/m 3,4 km/h (1 Bft)
15.10.2007 04:54 21,6 C 3,3 C 77 % 1017 hPa 0,0 l/m 4,8 km/h (1 Bft)
15.10.2007 04:57 21,6 C 3,3 C 77 % 1017 hPa 0,0 l/m 3,3 km/h (1 Bft)
15.10.2007 05:00 21,6 C 3,3 C 77 % 1017 hPa 0,0 l/m 3,3 km/h (1 Bft)
15.10.2007 05:03 21,6 C 3,3 C 77 % 1017 hPa 0,0 l/m 6,0 km/h (2 Bft)
15.10.2007 05:06 21,6 C 3,3 C 77 % 1017 hPa 0,0 l/m 3,5 km/h (1 Bft)
15.10.2007 05:09 21,7 C 3,3 C 77 % 1017 hPa 0,0 l/m 0,9 km/h (0 Bft)
15.10.2007 05:12 21,7 C 3,3 C 77 % 1017 hPa 0,0 l/m 7,1 km/h (2 Bft)
15.10.2007 05:15 21,7 C 3,3 C 77 % 1017 hPa 0,0 l/m 0,2 km/h (0 Bft)
15.10.2007 05:18 21,8 C 3,3 C 77 % 1017 hPa 0,0 l/m 0,6 km/h (0 Bft)
15.10.2007 05:21 21,8 C 3,3 C 77 % 1017 hPa 0,0 l/m 1,5 km/h (1 Bft)
15.10.2007 05:24 21,8 C 3,3 C 77 % 1017 hPa 0,0 l/m 4,0 km/h (1 Bft)
15.10.2007 05:27 21,8 C 3,3 C 77 % 1017 hPa 0,0 l/m 5,7 km/h (1 Bft)
15.10.2007 05:30 21,8 C 3,3 C 77 % 1017 hPa 0,0 l/m 0,2 km/h (0 Bft)
15.10.2007 05:33 21,8 C 3,4 C 77 % 1017 hPa 0,0 l/m 0,7 km/h (0 Bft)
15.10.2007 05:36 21,8 C 3,5 C 78 % 1017 hPa 0,0 l/m 0,4 km/h (0 Bft)
15.10.2007 05:39 21,8 C 3,5 C 78 % 1017 hPa 0,0 l/m 0,6 km/h (0 Bft)
15.10.2007 05:42 21,9 C 3,4 C 77 % 1017 hPa 0,0 l/m 0,7 km/h (0 Bft)
15.10.2007 05:45 21,9 C 3,4 C 77 % 1017 hPa 0,0 l/m 0,7 km/h (0 Bft)
15.10.2007 05:48 21,8 C 3,4 C 77 % 1017 hPa 0,0 l/m 0,6 km/h (0 Bft)
15.10.2007 05:51 21,9 C 3,4 C 78 % 1017 hPa 0,0 l/m 7,0 km/h (2 Bft)
15.10.2007 05:54 21,8 C 3,3 C 78 % 1017 hPa 0,0 l/m 1,0 km/h (0 Bft)
15.10.2007 05:57 21,8 C 3,3 C 77 % 1017 hPa 0,0 l/m 0,1 km/h (0 Bft)
15.10.2007 06:00 21,8 C 3,3 C 77 % 1017 hPa 0,0 l/m 2,0 km/h (1 Bft)
15.10.2007 06:03 21,9 C 3,3 C 77 % 1017 hPa 0,0 l/m 1,2 km/h (1 Bft)
15.10.2007 06:06 21,9 C 3,3 C 77 % 1017 hPa 0,0 l/m 2,5 km/h (1 Bft)
15.10.2007 06:09 21,8 C 3,3 C 78 % 1017 hPa 0,0 l/m 4,5 km/h (1 Bft)
15.10.2007 06:13 21,8 C 3,3 C 78 % 1017 hPa 0,0 l/m 1,5 km/h (1 Bft)
15.10.2007 06:16 21,8 C 3,3 C 78 % 1017 hPa 0,0 l/m 2,4 km/h (1 Bft)
15.10.2007 06:19 21,9 C 3,3 C 77 % 1017 hPa 0,0 l/m 0,6 km/h (0 Bft)
15.10.2007 06:22 21,9 C 3,3 C 77 % 1017 hPa 0,0 l/m 0,3 km/h (0 Bft)
15.10.2007 06:24 22,0 C 3,3 C 77 % 1017 hPa 0,0 l/m 0,8 km/h (0 Bft)
15.10.2007 06:27 22,0 C 3,3 C 77 % 1017 hPa 0,0 l/m 0,1 km/h (0 Bft)
15.10.2007 06:30 22,0 C 3,3 C 77 % 1017 hPa 0,0 l/m 1,4 km/h (1 Bft)
15.10.2007 06:33 22,1 C 3,2 C 77 % 1017 hPa 0,0 l/m 0,4 km/h (0 Bft)
15.10.2007 06:36 22,1 C 3,2 C 77 % 1017 hPa 0,0 l/m 2,0 km/h (1 Bft)
15.10.2007 06:39 22,1 C 3,2 C 77 % 1017 hPa 0,0 l/m 4,6 km/h (1 Bft)
15.10.2007 06:42 22,2 C 3,2 C 77 % 1017 hPa 0,0 l/m 2,4 km/h (1 Bft)
15.10.2007 06:45 22,1 C 3,1 C 78 % 1017 hPa 0,0 l/m 0,6 km/h (0 Bft)
15.10.2007 06:48 22,1 C 3,1 C 78 % 1017 hPa 0,0 l/m 2,2 km/h (1 Bft)
15.10.2007 06:51 22,1 C 3,1 C 78 % 1017 hPa 0,0 l/m 3,4 km/h (1 Bft)
15.10.2007 06:54 22,0 C 3,1 C 78 % 1017 hPa 0,0 l/m 0,1 km/h (0 Bft)
15.10.2007 06:57 22,0 C 3,1 C 78 % 1017 hPa 0,0 l/m 6,4 km/h (2 Bft)
15.10.2007 07:00 22,0 C 3,1 C 78 % 1017 hPa 0,0 l/m 1,6 km/h (1 Bft)
15.10.2007 07:03 22,0 C 3,0 C 78 % 1017 hPa 0,0 l/m 0,9 km/h (0 Bft)
15.10.2007 07:06 22,0 C 3,0 C 78 % 1017 hPa 0,0 l/m 5,8 km/h (2 Bft)
15.10.2007 07:09 22,0 C 3,0 C 78 % 1017 hPa 0,0 l/m 0,6 km/h (0 Bft)
15.10.2007 07:12 22,0 C 3,0 C 78 % 1017 hPa 0,0 l/m 0,7 km/h (0 Bft)
15.10.2007 07:15 22,0 C 3,1 C 78 % 1017 hPa 0,0 l/m 0,5 km/h (0 Bft)
15.10.2007 07:18 22,0 C 3,0 C 78 % 1017 hPa 0,0 l/m 3,3 km/h (1 Bft)
15.10.2007 07:21 22,0 C 3,1 C 78 % 1017 hPa 0,0 l/m 1,1 km/h (1 Bft)
15.10.2007 07:24 22,0 C 3,0 C 78 % 1017 hPa 0,0 l/m 0,3 km/h (0 Bft)
15.10.2007 07:27 21,9 C 3,1 C 78 % 1017 hPa 0,0 l/m 0,4 km/h (0 Bft)
15.10.2007 07:30 21,9 C 3,1 C 78 % 1017 hPa 0,0 l/m 0,4 km/h (0 Bft)
15.10.2007 07:33 21,9 C 3,1 C 78 % 1017 hPa 0,0 l/m 3,9 km/h (1 Bft)
15.10.2007 07:36 21,9 C 3,1 C 78 % 1017 hPa 0,0 l/m 1,2 km/h (1 Bft)
15.10.2007 07:39 21,9 C 3,2 C 78 % 1017 hPa 0,0 l/m 3,9 km/h (1 Bft)
15.10.2007 07:42 21,8 C 3,2 C 78 % 1017 hPa 0,0 l/m 5,1 km/h (1 Bft)
15.10.2007 07:45 21,8 C 3,1 C 78 % 1017 hPa 0,0 l/m 4,0 km/h (1 Bft)
15.10.2007 07:48 21,8 C 3,1 C 78 % 1017 hPa 0,0 l/m 0,0 km/h (0 Bft)
15.10.2007 07:51 21,8 C 3,3 C 78 % 1017 hPa 0,0 l/m 3,9 km/h (1 Bft)
15.10.2007 07:54 21,8 C 3,3 C 78 % 1017 hPa 0,0 l/m 1,2 km/h (1 Bft)
15.10.2007 07:57 21,8 C 3,3 C 78 % 1017 hPa 0,0 l/m 0,6 km/h (0 Bft)
15.10.2007 08:00 21,8 C 3,3 C 78 % 1017 hPa 0,0 l/m 0,3 km/h (0 Bft)
15.10.2007 08:03 21,8 C 3,3 C 78 % 1017 hPa 0,0 l/m 2,4 km/h (1 Bft)
15.10.2007 08:06 21,8 C 3,3 C 78 % 1017 hPa 0,0 l/m 0,3 km/h (0 Bft)
15.10.2007 08:09 21,8 C 3,3 C 78 % 1017 hPa 0,0 l/m 1,0 km/h (0 Bft)
15.10.2007 08:12 21,8 C 3,4 C 78 % 1017 hPa 0,0 l/m 5,6 km/h (1 Bft)
15.10.2007 08:15 21,8 C 3,4 C 78 % 1017 hPa 0,0 l/m 1,8 km/h (1 Bft)
15.10.2007 08:18 21,8 C 3,4 C 78 % 1017 hPa 0,0 l/m 0,3 km/h (0 Bft)
15.10.2007 08:21 21,8 C 3,5 C 78 % 1017 hPa 0,0 l/m 0,9 km/h (0 Bft)
15.10.2007 08:24 21,8 C 3,5 C 78 % 1017 hPa 0,0 l/m 4,7 km/h (1 Bft)
15.10.2007 08:27 21,8 C 3,5 C 78 % 1017 hPa 0,0 l/m 4,8 km/h (1 Bft)
15.10.2007 08:30 21,8 C 3,7 C 78 % 1017 hPa 0,0 l/m 1,3 km/h (1 Bft)
15.10.2007 08:33 21,8 C 3,8 C 78 % 1017 hPa 0,0 l/m 1,3 km/h (1 Bft)
15.10.2007 08:36 21,8 C 3,9 C 77 % 1017 hPa 0,0 l/m 7,4 km/h (2 Bft)
15.10.2007 08:39 21,8 C 3,9 C 77 % 1017 hPa 0,0 l/m 5,9 km/h (2 Bft)
15.10.2007 08:42 21,8 C 3,9 C 77 % 1017 hPa 0,0 l/m 6,5 km/h (2 Bft)
15.10.2007 08:45 21,8 C 4,1 C 77 % 1017 hPa 0,0 l/m 7,7 km/h (2 Bft)
15.10.2007 08:48 21,8 C 4,2 C 77 % 1017 hPa 0,0 l/m 1,1 km/h (1 Bft)
15.10.2007 08:51 21,8 C 4,3 C 77 % 1017 hPa 0,0 l/m 2,5 km/h (1 Bft)
15.10.2007 08:54 21,8 C 4,3 C 77 % 1017 hPa 0,0 l/m 12,5 km/h (3 Bft)
15.10.2007 08:57 21,8 C 4,4 C 76 % 1017 hPa 0,0 l/m 10,1 km/h (2 Bft)
15.10.2007 09:00 21,8 C 4,4 C 76 % 1017 hPa 0,0 l/m 8,9 km/h (2 Bft)
15.10.2007 09:03 21,8 C 4,5 C 76 % 1017 hPa 0,0 l/m 6,6 km/h (2 Bft)
15.10.2007 09:06 21,8 C 4,6 C 75 % 1017 hPa 0,0 l/m 11,5 km/h (2 Bft)
15.10.2007 09:09 21,8 C 4,6 C 75 % 1017 hPa 0,0 l/m 8,1 km/h (2 Bft)
15.10.2007 09:12 21,8 C 4,7 C 75 % 1017 hPa 0,0 l/m 12,6 km/h (3 Bft)
15.10.2007 09:15 21,8 C 4,7 C 75 % 1017 hPa 0,0 l/m 9,4 km/h (2 Bft)
15.10.2007 09:18 21,8 C 4,9 C 74 % 1017 hPa 0,0 l/m 10,3 km/h (2 Bft)
15.10.2007 09:21 21,8 C 5,1 C 74 % 1017 hPa 0,0 l/m 10,6 km/h (2 Bft)
15.10.2007 09:24 21,9 C 5,2 C 74 % 1017 hPa 0,0 l/m 13,1 km/h (3 Bft)
15.10.2007 09:27 21,9 C 5,3 C 74 % 1017 hPa 0,0 l/m 5,8 km/h (2 Bft)
15.10.2007 09:30 21,9 C 5,3 C 74 % 1017 hPa 0,0 l/m 6,5 km/h (2 Bft)
15.10.2007 09:33 22,0 C 5,6 C 74 % 1017 hPa 0,0 l/m 12,8 km/h (3 Bft)
15.10.2007 09:36 21,9 C 5,6 C 73 % 1017 hPa 0,0 l/m 9,6 km/h (2 Bft)
15.10.2007 09:39 21,9 C 5,7 C 74 % 1017 hPa 0,0 l/m 13,6 km/h (3 Bft)
15.10.2007 09:42 22,0 C 5,8 C 73 % 1017 hPa 0,0 l/m 11,6 km/h (2 Bft)
15.10.2007 09:45 22,0 C 5,9 C 73 % 1017 hPa 0,0 l/m 11,6 km/h (2 Bft)
15.10.2007 09:48 22,0 C 6,0 C 72 % 1017 hPa 0,0 l/m 11,3 km/h (2 Bft)
15.10.2007 09:51 22,0 C 6,0 C 72 % 1017 hPa 0,0 l/m 7,3 km/h (2 Bft)
15.10.2007 09:54 21,9 C 6,1 C 73 % 1017 hPa 0,0 l/m 12,2 km/h (2 Bft)
15.10.2007 09:57 21,9 C 6,2 C 73 % 1017 hPa 0,0 l/m 6,1 km/h (2 Bft)
15.10.2007 10:00 21,9 C 6,2 C 73 % 1017 hPa 0,0 l/m 9,1 km/h (2 Bft)
15.10.2007 10:03 21,8 C 6,4 C 73 % 1017 hPa 0,0 l/m 10,2 km/h (2 Bft)
15.10.2007 10:06 21,9 C 6,4 C 73 % 1017 hPa 0,0 l/m 9,4 km/h (2 Bft)
15.10.2007 10:09 21,9 C 6,5 C 73 % 1017 hPa 0,0 l/m 9,8 km/h (2 Bft)
15.10.2007 10:12 21,8 C 6,6 C 73 % 1017 hPa 0,0 l/m 10,2 km/h (2 Bft)
15.10.2007 10:15 21,8 C 6,6 C 72 % 1017 hPa 0,0 l/m 10,2 km/h (2 Bft)
15.10.2007 10:18 21,9 C 6,8 C 73 % 1017 hPa 0,0 l/m 7,0 km/h (2 Bft)
15.10.2007 10:21 21,8 C 6,8 C 72 % 1017 hPa 0,0 l/m 9,8 km/h (2 Bft)
15.10.2007 10:24 21,9 C 6,9 C 73 % 1017 hPa 0,0 l/m 9,0 km/h (2 Bft)
15.10.2007 10:27 21,8 C 7,0 C 72 % 1017 hPa 0,0 l/m 10,5 km/h (2 Bft)
15.10.2007 10:30 21,8 C 7,0 C 72 % 1017 hPa 0,0 l/m 10,6 km/h (2 Bft)
15.10.2007 10:33 21,9 C 7,1 C 72 % 1017 hPa 0,0 l/m 5,4 km/h (1 Bft)
15.10.2007 10:36 21,9 C 7,1 C 72 % 1017 hPa 0,0 l/m 6,8 km/h (2 Bft)
15.10.2007 10:39 21,9 C 7,2 C 72 % 1017 hPa 0,0 l/m 5,1 km/h (1 Bft)
15.10.2007 10:42 21,9 C 7,3 C 72 % 1017 hPa 0,0 l/m 6,1 km/h (2 Bft)
15.10.2007 10:45 21,9 C 7,5 C 71 % 1017 hPa 0,0 l/m 2,2 km/h (1 Bft)
15.10.2007 10:48 22,0 C 7,5 C 70 % 1017 hPa 0,0 l/m 7,7 km/h (2 Bft)
15.10.2007 10:51 21,9 C 7,5 C 70 % 1017 hPa 0,0 l/m 6,5 km/h (2 Bft)
15.10.2007 10:54 22,0 C 7,6 C 70 % 1017 hPa 0,0 l/m 6,3 km/h (2 Bft)
15.10.2007 10:57 21,9 C 7,6 C 70 % 1017 hPa 0,0 l/m 7,6 km/h (2 Bft)
15.10.2007 11:00 22,0 C 7,9 C 70 % 1017 hPa 0,0 l/m 5,9 km/h (2 Bft)
15.10.2007 11:03 22,0 C 8,1 C 69 % 1017 hPa 0,0 l/m 9,0 km/h (2 Bft)
15.10.2007 11:06 22,0 C 8,3 C 69 % 1017 hPa 0,0 l/m 6,9 km/h (2 Bft)
15.10.2007 11:09 22,0 C 8,4 C 68 % 1017 hPa 0,0 l/m 7,4 km/h (2 Bft)
15.10.2007 11:12 22,0 C 8,6 C 68 % 1017 hPa 0,0 l/m 10,1 km/h (2 Bft)
15.10.2007 11:15 22,0 C 8,8 C 67 % 1017 hPa 0,0 l/m 12,4 km/h (3 Bft)
15.10.2007 11:18 22,0 C 8,9 C 66 % 1017 hPa 0,0 l/m 12,4 km/h (3 Bft)
15.10.2007 11:21 22,0 C 8,9 C 66 % 1017 hPa 0,0 l/m 8,3 km/h (2 Bft)
15.10.2007 11:24 22,0 C 8,9 C 66 % 1017 hPa 0,0 l/m 9,0 km/h (2 Bft)
15.10.2007 11:27 22,0 C 8,9 C 66 % 1017 hPa 0,0 l/m 6,7 km/h (2 Bft)
15.10.2007 11:30 22,0 C 9,2 C 66 % 1017 hPa 0,0 l/m 10,0 km/h (2 Bft)
15.10.2007 11:33 22,0 C 9,3 C 65 % 1017 hPa 0,0 l/m 7,2 km/h (2 Bft)
15.10.2007 11:36 22,1 C 9,3 C 64 % 1017 hPa 0,0 l/m 10,8 km/h (2 Bft)
15.10.2007 11:39 22,0 C 9,5 C 64 % 1017 hPa 0,0 l/m 10,5 km/h (2 Bft)
15.10.2007 11:42 22,0 C 9,5 C 64 % 1017 hPa 0,0 l/m 7,9 km/h (2 Bft)
15.10.2007 11:45 22,0 C 9,5 C 64 % 1017 hPa 0,0 l/m 6,5 km/h (2 Bft)
15.10.2007 11:48 22,1 C 9,5 C 64 % 1017 hPa 0,0 l/m 8,7 km/h (2 Bft)
15.10.2007 11:51 22,1 C 9,8 C 63 % 1017 hPa 0,0 l/m 5,5 km/h (1 Bft)
15.10.2007 11:54 22,0 C 9,8 C 63 % 1017 hPa 0,0 l/m 8,3 km/h (2 Bft)
15.10.2007 11:57 22,0 C 9,9 C 64 % 1017 hPa 0,0 l/m 6,6 km/h (2 Bft)
15.10.2007 12:00 22,0 C 9,9 C 64 % 1017 hPa 0,0 l/m 6,6 km/h (2 Bft)
15.10.2007 12:28 22,0 C 9,9 C 64 % 1017 hPa 0,0 l/m 6,6 km/h (2 Bft)
15.10.2007 12:31 22,0 C 10,1 C 61 % 1017 hPa 0,0 l/m 6,9 km/h (2 Bft)
15.10.2007 12:34 22,0 C 10,1 C 61 % 1017 hPa 0,0 l/m 6,9 km/h (2 Bft)
15.10.2007 12:37 22,0 C 10,1 C 61 % 1017 hPa 0,0 l/m 4,0 km/h (1 Bft)
15.10.2007 12:40 22,0 C 10,3 C 63 % 1017 hPa 0,0 l/m 7,1 km/h (2 Bft)
15.10.2007 12:43 22,0 C 10,3 C 63 % 1017 hPa 0,0 l/m 4,4 km/h (1 Bft)
15.10.2007 12:46 22,1 C 10,3 C 63 % 1017 hPa 0,0 l/m 5,9 km/h (2 Bft)
15.10.2007 12:49 22,0 C 10,5 C 63 % 1017 hPa 0,0 l/m 3,2 km/h (1 Bft)
15.10.2007 12:52 22,0 C 10,7 C 63 % 1017 hPa 0,0 l/m 5,7 km/h (1 Bft)
15.10.2007 12:55 22,1 C 10,7 C 63 % 1017 hPa 0,0 l/m 8,1 km/h (2 Bft)
15.10.2007 12:58 22,1 C 10,8 C 63 % 1017 hPa 0,0 l/m 0,3 km/h (0 Bft)
15.10.2007 13:01 22,1 C 10,9 C 63 % 1017 hPa 0,0 l/m 4,6 km/h (1 Bft)
15.10.2007 13:04 22,2 C 10,9 C 63 % 1017 hPa 0,0 l/m 4,6 km/h (1 Bft)
15.10.2007 13:07 22,2 C 11,0 C 63 % 1017 hPa 0,0 l/m 4,9 km/h (1 Bft)
15.10.2007 13:10 22,2 C 11,1 C 64 % 1017 hPa 0,0 l/m 0,6 km/h (0 Bft)
15.10.2007 13:13 22,1 C 11,2 C 64 % 1017 hPa 0,0 l/m 0,0 km/h (0 Bft)
15.10.2007 13:16 22,1 C 11,2 C 64 % 1016 hPa 0,0 l/m 0,5 km/h (0 Bft)
15.10.2007 13:19 22,2 C 11,2 C 64 % 1016 hPa 0,0 l/m 0,0 km/h (0 Bft)
15.10.2007 13:22 22,1 C 11,5 C 64 % 1016 hPa 0,0 l/m 0,5 km/h (0 Bft)
15.10.2007 13:25 22,2 C 11,5 C 63 % 1016 hPa 0,0 l/m 2,6 km/h (1 Bft)
15.10.2007 13:28 22,2 C 11,6 C 63 % 1016 hPa 0,0 l/m 0,2 km/h (0 Bft)
15.10.2007 13:31 22,2 C 11,6 C 63 % 1016 hPa 0,0 l/m 0,6 km/h (0 Bft)
15.10.2007 13:34 22,2 C 11,6 C 61 % 1016 hPa 0,0 l/m 3,3 km/h (1 Bft)
15.10.2007 13:37 22,2 C 11,6 C 61 % 1016 hPa 0,0 l/m 0,3 km/h (0 Bft)
15.10.2007 13:40 22,2 C 11,8 C 62 % 1016 hPa 0,0 l/m 4,5 km/h (1 Bft)
15.10.2007 13:43 22,2 C 11,9 C 63 % 1016 hPa 0,0 l/m 3,4 km/h (1 Bft)
15.10.2007 13:46 22,2 C 12,0 C 62 % 1016 hPa 0,0 l/m 2,5 km/h (1 Bft)
15.10.2007 13:49 22,2 C 12,0 C 62 % 1016 hPa 0,0 l/m 6,8 km/h (2 Bft)
15.10.2007 13:52 22,2 C 12,0 C 62 % 1016 hPa 0,0 l/m 5,7 km/h (1 Bft)
15.10.2007 13:55 22,2 C 12,0 C 62 % 1016 hPa 0,0 l/m 0,4 km/h (0 Bft)
15.10.2007 13:58 22,2 C 12,1 C 62 % 1016 hPa 0,0 l/m 4,3 km/h (1 Bft)
15.10.2007 14:01 22,2 C 12,1 C 62 % 1016 hPa 0,0 l/m 5,5 km/h (1 Bft)
15.10.2007 14:04 22,2 C 12,2 C 62 % 1016 hPa 0,0 l/m 0,9 km/h (0 Bft)
15.10.2007 14:07 22,2 C 12,2 C 62 % 1016 hPa 0,0 l/m 4,4 km/h (1 Bft)
15.10.2007 14:10 22,2 C 12,2 C 62 % 1016 hPa 0,0 l/m 3,4 km/h (1 Bft)
15.10.2007 14:13 22,2 C 12,2 C 62 % 1016 hPa 0,0 l/m 1,3 km/h (1 Bft)
15.10.2007 14:16 22,2 C 12,4 C 61 % 1016 hPa 0,0 l/m 0,3 km/h (0 Bft)
15.10.2007 14:19 22,2 C 12,4 C 61 % 1016 hPa 0,0 l/m 4,3 km/h (1 Bft)
15.10.2007 14:22 22,1 C 12,5 C 62 % 1016 hPa 0,0 l/m 5,7 km/h (1 Bft)
15.10.2007 14:25 21,9 C 12,7 C 62 % 1016 hPa 0,0 l/m 5,6 km/h (1 Bft)
15.10.2007 14:28 21,7 C 12,6 C 60 % 1016 hPa 0,0 l/m 6,7 km/h (2 Bft)
15.10.2007 14:31 21,6 C 12,7 C 60 % 1016 hPa 0,0 l/m 5,7 km/h (1 Bft)
15.10.2007 14:34 21,6 C 12,8 C 61 % 1016 hPa 0,0 l/m 4,3 km/h (1 Bft)
15.10.2007 14:37 21,6 C 12,8 C 61 % 1016 hPa 0,0 l/m 2,6 km/h (1 Bft)
15.10.2007 14:40 21,3 C 13,0 C 60 % 1016 hPa 0,0 l/m 7,7 km/h (2 Bft)
15.10.2007 14:43 21,5 C 13,0 C 60 % 1016 hPa 0,0 l/m 7,8 km/h (2 Bft)
15.10.2007 14:46 21,6 C 13,0 C 59 % 1016 hPa 0,0 l/m 3,2 km/h (1 Bft)
15.10.2007 14:49 21,7 C 13,1 C 60 % 1016 hPa 0,0 l/m 0,1 km/h (0 Bft)
15.10.2007 14:52 21,8 C 13,0 C 60 % 1016 hPa 0,0 l/m 5,0 km/h (1 Bft)
15.10.2007 14:55 21,8 C 13,1 C 60 % 1016 hPa 0,0 l/m 6,2 km/h (2 Bft)
15.10.2007 14:58 21,8 C 13,1 C 59 % 1016 hPa 0,0 l/m 7,4 km/h (2 Bft)
15.10.2007 15:01 21,9 C 13,1 C 59 % 1016 hPa 0,0 l/m 5,6 km/h (1 Bft)
15.10.2007 15:04 22,0 C 13,1 C 59 % 1016 hPa 0,0 l/m 3,0 km/h (1 Bft)
15.10.2007 15:07 22,0 C 13,1 C 59 % 1016 hPa 0,0 l/m 2,1 km/h (1 Bft)
15.10.2007 15:10 22,0 C 13,1 C 60 % 1016 hPa 0,0 l/m 2,1 km/h (1 Bft)
15.10.2007 15:13 22,0 C 13,2 C 60 % 1016 hPa 0,0 l/m 1,1 km/h (1 Bft)
15.10.2007 15:16 22,0 C 13,2 C 60 % 1016 hPa 0,0 l/m 5,4 km/h (1 Bft)
15.10.2007 15:19 22,0 C 13,2 C 61 % 1016 hPa 0,0 l/m 0,7 km/h (0 Bft)
15.10.2007 15:22 22,0 C 13,2 C 61 % 1016 hPa 0,0 l/m 4,7 km/h (1 Bft)
15.10.2007 15:25 22,0 C 13,3 C 60 % 1016 hPa 0,0 l/m 1,0 km/h (0 Bft)
15.10.2007 15:28 22,0 C 13,3 C 60 % 1015 hPa 0,0 l/m 4,3 km/h (1 Bft)
15.10.2007 15:31 22,1 C 13,3 C 60 % 1015 hPa 0,0 l/m 5,1 km/h (1 Bft)
15.10.2007 15:34 22,0 C 13,3 C 60 % 1015 hPa 0,0 l/m 0,6 km/h (0 Bft)
15.10.2007 15:37 22,0 C 13,4 C 60 % 1015 hPa 0,0 l/m 0,7 km/h (0 Bft)
15.10.2007 15:40 22,0 C 13,3 C 60 % 1015 hPa 0,0 l/m 5,7 km/h (1 Bft)
15.10.2007 15:43 22,0 C 13,4 C 61 % 1015 hPa 0,0 l/m 5,7 km/h (1 Bft)
15.10.2007 15:46 22,0 C 13,4 C 61 % 1015 hPa 0,0 l/m 3,5 km/h (1 Bft)
15.10.2007 15:49 22,0 C 13,4 C 60 % 1015 hPa 0,0 l/m 0,1 km/h (0 Bft)
15.10.2007 15:52 22,0 C 13,5 C 60 % 1015 hPa 0,0 l/m 0,6 km/h (0 Bft)
15.10.2007 15:55 22,0 C 13,5 C 61 % 1015 hPa 0,0 l/m 3,9 km/h (1 Bft)
15.10.2007 15:58 22,0 C 13,5 C 61 % 1015 hPa 0,0 l/m 0,4 km/h (0 Bft)
15.10.2007 16:01 22,0 C 13,6 C 60 % 1015 hPa 0,0 l/m 0,4 km/h (0 Bft)
15.10.2007 16:04 22,0 C 13,6 C 61 % 1015 hPa 0,0 l/m 0,4 km/h (0 Bft)
15.10.2007 16:07 22,0 C 13,6 C 61 % 1015 hPa 0,0 l/m 3,6 km/h (1 Bft)
15.10.2007 16:10 22,0 C 13,6 C 61 % 1015 hPa 0,0 l/m 4,5 km/h (1 Bft)
15.10.2007 16:13 22,0 C 13,6 C 61 % 1015 hPa 0,0 l/m 2,2 km/h (1 Bft)
15.10.2007 16:16 22,1 C 13,6 C 61 % 1015 hPa 0,0 l/m 2,2 km/h (1 Bft)
15.10.2007 16:19 22,1 C 13,7 C 61 % 1015 hPa 0,0 l/m 3,3 km/h (1 Bft)
15.10.2007 16:22 22,0 C 13,6 C 61 % 1015 hPa 0,0 l/m 0,7 km/h (0 Bft)
15.10.2007 16:25 22,1 C 13,6 C 61 % 1015 hPa 0,0 l/m 0,4 km/h (0 Bft)
15.10.2007 16:28 22,1 C 13,8 C 61 % 1015 hPa 0,0 l/m 4,0 km/h (1 Bft)
15.10.2007 16:31 22,1 C 13,8 C 61 % 1015 hPa 0,0 l/m 4,0 km/h (1 Bft)
15.10.2007 16:34 22,1 C 13,8 C 61 % 1015 hPa 0,0 l/m 2,8 km/h (1 Bft)
15.10.2007 16:37 22,1 C 13,8 C 61 % 1015 hPa 0,0 l/m 0,4 km/h (0 Bft)
15.10.2007 16:40 22,1 C 13,8 C 61 % 1015 hPa 0,0 l/m 0,6 km/h (0 Bft)
15.10.2007 16:43 22,1 C 13,8 C 61 % 1015 hPa 0,0 l/m 1,4 km/h (1 Bft)
15.10.2007 16:46 22,2 C 13,8 C 61 % 1015 hPa 0,0 l/m 2,9 km/h (1 Bft)
15.10.2007 16:49 22,2 C 13,9 C 61 % 1015 hPa 0,0 l/m 0,3 km/h (0 Bft)
15.10.2007 16:52 22,3 C 13,8 C 61 % 1015 hPa 0,0 l/m 0,3 km/h (0 Bft)
15.10.2007 16:55 22,3 C 13,8 C 61 % 1015 hPa 0,0 l/m 1,8 km/h (1 Bft)
15.10.2007 16:58 22,3 C 13,8 C 61 % 1015 hPa 0,0 l/m 1,5 km/h (1 Bft)
15.10.2007 17:01 22,3 C 13,8 C 62 % 1015 hPa 0,0 l/m 0,1 km/h (0 Bft)
15.10.2007 17:04 22,3 C 13,8 C 62 % 1015 hPa 0,0 l/m 0,3 km/h (0 Bft)
15.10.2007 17:07 22,2 C 13,8 C 62 % 1015 hPa 0,0 l/m 0,1 km/h (0 Bft)
15.10.2007 17:10 22,3 C 13,9 C 62 % 1015 hPa 0,0 l/m 0,4 km/h (0 Bft)
15.10.2007 17:13 22,3 C 13,8 C 62 % 1015 hPa 0,0 l/m 2,4 km/h (1 Bft)
15.10.2007 17:16 22,3 C 13,8 C 63 % 1015 hPa 0,0 l/m 0,4 km/h (0 Bft)
15.10.2007 17:19 22,3 C 13,8 C 63 % 1015 hPa 0,0 l/m 0,1 km/h (0 Bft)
15.10.2007 17:22 22,2 C 13,8 C 63 % 1015 hPa 0,0 l/m 0,3 km/h (0 Bft)
15.10.2007 17:25 22,3 C 13,7 C 63 % 1015 hPa 0,0 l/m 0,4 km/h (0 Bft)
15.10.2007 17:28 22,3 C 13,7 C 63 % 1015 hPa 0,0 l/m 0,0 km/h (0 Bft)
15.10.2007 17:31 22,2 C 13,7 C 63 % 1015 hPa 0,0 l/m 0,0 km/h (0 Bft)
15.10.2007 17:34 22,2 C 13,7 C 63 % 1015 hPa 0,0 l/m 0,0 km/h (0 Bft)
15.10.2007 17:37 22,2 C 13,7 C 64 % 1015 hPa 0,0 l/m 0,0 km/h (0 Bft)
15.10.2007 17:40 22,2 C 13,6 C 64 % 1015 hPa 0,0 l/m 0,8 km/h (0 Bft)
15.10.2007 17:43 22,2 C 13,6 C 64 % 1015 hPa 0,0 l/m 0,2 km/h (0 Bft)
15.10.2007 17:46 22,2 C 13,5 C 65 % 1015 hPa 0,0 l/m 0,0 km/h (0 Bft)
15.10.2007 17:49 22,2 C 13,4 C 66 % 1015 hPa 0,0 l/m 1,3 km/h (1 Bft)
15.10.2007 17:52 22,2 C 13,3 C 66 % 1015 hPa 0,0 l/m 0,2 km/h (0 Bft)
15.10.2007 17:55 22,2 C 13,2 C 66 % 1015 hPa 0,0 l/m 0,1 km/h (0 Bft)
15.10.2007 17:58 22,2 C 13,2 C 66 % 1015 hPa 0,0 l/m 0,4 km/h (0 Bft)
15.10.2007 18:01 22,1 C 13,2 C 66 % 1015 hPa 0,0 l/m 0,1 km/h (0 Bft)
15.10.2007 18:04 22,1 C 13,0 C 66 % 1015 hPa 0,0 l/m 2,4 km/h (1 Bft)
15.10.2007 18:07 22,1 C 12,9 C 66 % 1015 hPa 0,0 l/m 2,4 km/h (1 Bft)
15.10.2007 18:10 22,2 C 12,9 C 66 % 1015 hPa 0,0 l/m 0,7 km/h (0 Bft)
15.10.2007 18:13 22,2 C 12,9 C 66 % 1015 hPa 0,0 l/m 0,5 km/h (0 Bft)
15.10.2007 18:16 22,2 C 12,9 C 66 % 1015 hPa 0,0 l/m 1,2 km/h (1 Bft)
15.10.2007 18:19 22,2 C 12,9 C 66 % 1015 hPa 0,0 l/m 0,3 km/h (0 Bft)
15.10.2007 18:22 22,2 C 12,7 C 66 % 1015 hPa 0,0 l/m 0,1 km/h (0 Bft)
15.10.2007 18:25 22,2 C 12,6 C 66 % 1015 hPa 0,0 l/m 0,0 km/h (0 Bft)
15.10.2007 18:28 22,2 C 12,6 C 66 % 1015 hPa 0,0 l/m 0,0 km/h (0 Bft)
15.10.2007 18:31 22,2 C 12,6 C 66 % 1015 hPa 0,0 l/m 0,0 km/h (0 Bft)
15.10.2007 18:34 22,2 C 12,2 C 66 % 1015 hPa 0,0 l/m 0,0 km/h (0 Bft)
15.10.2007 18:37 22,2 C 12,1 C 67 % 1015 hPa 0,0 l/m 0,0 km/h (0 Bft)
15.10.2007 18:40 22,2 C 11,9 C 67 % 1015 hPa 0,0 l/m 0,0 km/h (0 Bft)
15.10.2007 18:43 22,2 C 11,8 C 67 % 1015 hPa 0,0 l/m 0,0 km/h (0 Bft)
15.10.2007 18:46 22,1 C 11,6 C 68 % 1015 hPa 0,0 l/m 0,0 km/h (0 Bft)
15.10.2007 18:50 22,1 C 11,6 C 68 % 1015 hPa 0,0 l/m 0,0 km/h (0 Bft)
15.10.2007 18:53 22,1 C 11,4 C 68 % 1015 hPa 0,0 l/m 0,0 km/h (0 Bft)
15.10.2007 18:56 22,2 C 11,3 C 68 % 1015 hPa 0,0 l/m 0,0 km/h (0 Bft)
15.10.2007 18:59 22,2 C 11,3 C 68 % 1015 hPa 0,0 l/m 0,0 km/h (0 Bft)
15.10.2007 19:02 22,1 C 11,3 C 68 % 1015 hPa 0,0 l/m 0,0 km/h (0 Bft)
15.10.2007 19:05 22,1 C 11,3 C 68 % 1015 hPa 0,0 l/m 0,0 km/h (0 Bft)
15.10.2007 19:08 22,1 C 10,9 C 69 % 1015 hPa 0,0 l/m 0,0 km/h (0 Bft)
15.10.2007 19:11 22,1 C 10,9 C 69 % 1015 hPa 0,0 l/m 0,0 km/h (0 Bft)
15.10.2007 19:13 22,1 C 10,9 C 69 % 1015 hPa 0,0 l/m 0,0 km/h (0 Bft)
15.10.2007 19:16 22,1 C 10,7 C 70 % 1015 hPa 0,0 l/m 0,0 km/h (0 Bft)
15.10.2007 19:19 22,1 C 10,7 C 70 % 1015 hPa 0,0 l/m 0,0 km/h (0 Bft)
15.10.2007 19:22 22,1 C 10,6 C 70 % 1015 hPa 0,0 l/m 0,0 km/h (0 Bft)
15.10.2007 19:25 22,1 C 10,6 C 70 % 1015 hPa 0,0 l/m 0,0 km/h (0 Bft)
15.10.2007 19:28 22,1 C 10,5 C 70 % 1015 hPa 0,0 l/m 0,0 km/h (0 Bft)
15.10.2007 19:31 22,1 C 10,5 C 70 % 1015 hPa 0,0 l/m 0,0 km/h (0 Bft)
15.10.2007 19:34 22,1 C 10,4 C 70 % 1015 hPa 0,0 l/m 0,0 km/h (0 Bft)
15.10.2007 19:37 22,1 C 10,3 C 71 % 1015 hPa 0,0 l/m 0,0 km/h (0 Bft)
15.10.2007 19:40 22,1 C 10,3 C 71 % 1015 hPa 0,0 l/m 0,1 km/h (0 Bft)
15.10.2007 19:43 22,1 C 10,3 C 71 % 1015 hPa 0,0 l/m 1,3 km/h (1 Bft)
15.10.2007 19:46 22,1 C 10,0 C 73 % 1015 hPa 0,0 l/m 3,7 km/h (1 Bft)
15.10.2007 19:49 22,1 C 10,0 C 74 % 1015 hPa 0,0 l/m 2,4 km/h (1 Bft)
15.10.2007 19:52 22,1 C 10,0 C 75 % 1015 hPa 0,0 l/m 3,1 km/h (1 Bft)
15.10.2007 19:55 22,0 C 10,1 C 75 % 1015 hPa 0,0 l/m 7,1 km/h (2 Bft)
15.10.2007 19:58 22,1 C 10,1 C 75 % 1015 hPa 0,0 l/m 1,5 km/h (1 Bft)
15.10.2007 20:01 22,1 C 10,2 C 74 % 1015 hPa 0,0 l/m 1,8 km/h (1 Bft)
15.10.2007 20:04 22,1 C 10,1 C 74 % 1015 hPa 0,0 l/m 5,7 km/h (1 Bft)
15.10.2007 20:07 22,1 C 10,1 C 74 % 1015 hPa 0,0 l/m 7,4 km/h (2 Bft)
15.10.2007 20:10 22,1 C 10,1 C 74 % 1015 hPa 0,0 l/m 5,8 km/h (2 Bft)
15.10.2007 20:13 22,1 C 10,1 C 74 % 1015 hPa 0,0 l/m 1,8 km/h (1 Bft)
15.10.2007 20:16 22,1 C 10,0 C 74 % 1015 hPa 0,0 l/m 6,1 km/h (2 Bft)
15.10.2007 20:19 22,1 C 10,0 C 74 % 1015 hPa 0,0 l/m 6,1 km/h (2 Bft)
15.10.2007 20:22 22,1 C 9,9 C 74 % 1015 hPa 0,0 l/m 3,3 km/h (1 Bft)
15.10.2007 20:25 22,1 C 9,8 C 74 % 1015 hPa 0,0 l/m 1,9 km/h (1 Bft)
15.10.2007 20:28 22,1 C 9,7 C 74 % 1015 hPa 0,0 l/m 4,5 km/h (1 Bft)
15.10.2007 20:31 22,1 C 9,6 C 74 % 1015 hPa 0,0 l/m 1,8 km/h (1 Bft)
15.10.2007 20:34 22,0 C 9,5 C 74 % 1015 hPa 0,0 l/m 2,9 km/h (1 Bft)
15.10.2007 20:37 22,1 C 9,4 C 74 % 1015 hPa 0,0 l/m 2,4 km/h (1 Bft)
15.10.2007 20:40 22,1 C 9,3 C 74 % 1015 hPa 0,0 l/m 1,9 km/h (1 Bft)
15.10.2007 20:43 22,1 C 9,3 C 74 % 1015 hPa 0,0 l/m 1,0 km/h (0 Bft)
15.10.2007 20:46 22,1 C 9,2 C 75 % 1015 hPa 0,0 l/m 2,7 km/h (1 Bft)
15.10.2007 20:49 22,1 C 9,1 C 75 % 1015 hPa 0,0 l/m 0,7 km/h (0 Bft)
15.10.2007 20:52 22,1 C 9,0 C 75 % 1015 hPa 0,0 l/m 0,7 km/h (0 Bft)
15.10.2007 20:55 22,1 C 8,9 C 75 % 1015 hPa 0,0 l/m 0,7 km/h (0 Bft)
15.10.2007 20:58 22,1 C 8,8 C 75 % 1015 hPa 0,0 l/m 0,6 km/h (0 Bft)
15.10.2007 21:01 22,1 C 8,8 C 75 % 1015 hPa 0,0 l/m 0,3 km/h (0 Bft)
15.10.2007 21:04 22,1 C 8,8 C 75 % 1015 hPa 0,0 l/m 0,0 km/h (0 Bft)
15.10.2007 21:07 22,1 C 8,7 C 75 % 1015 hPa 0,0 l/m 0,5 km/h (0 Bft)
15.10.2007 21:10 22,1 C 8,6 C 75 % 1015 hPa 0,0 l/m 0,6 km/h (0 Bft)
15.10.2007 21:13 22,1 C 8,6 C 75 % 1015 hPa 0,0 l/m 0,4 km/h (0 Bft)
15.10.2007 21:16 22,1 C 8,6 C 75 % 1015 hPa 0,0 l/m 3,0 km/h (1 Bft)
15.10.2007 21:19 22,1 C 8,6 C 75 % 1015 hPa 0,0 l/m 0,1 km/h (0 Bft)
15.10.2007 21:22 22,1 C 8,6 C 75 % 1015 hPa 0,0 l/m 0,0 km/h (0 Bft)
15.10.2007 21:25 22,1 C 8,6 C 75 % 1015 hPa 0,0 l/m 0,0 km/h (0 Bft)
15.10.2007 21:28 22,1 C 8,6 C 75 % 1015 hPa 0,0 l/m 0,0 km/h (0 Bft)
15.10.2007 21:31 22,1 C 8,6 C 75 % 1015 hPa 0,0 l/m 0,0 km/h (0 Bft)
15.10.2007 21:34 22,1 C 8,5 C 75 % 1015 hPa 0,0 l/m 0,0 km/h (0 Bft)
15.10.2007 21:37 22,1 C 8,4 C 75 % 1015 hPa 0,0 l/m 0,0 km/h (0 Bft)
15.10.2007 21:40 22,1 C 8,4 C 76 % 1015 hPa 0,0 l/m 0,0 km/h (0 Bft)
15.10.2007 21:43 22,1 C 8,3 C 76 % 1015 hPa 0,0 l/m 0,0 km/h (0 Bft)
15.10.2007 21:46 22,1 C 8,3 C 76 % 1015 hPa 0,0 l/m 0,0 km/h (0 Bft)
15.10.2007 21:49 22,1 C 8,2 C 76 % 1015 hPa 0,0 l/m 0,0 km/h (0 Bft)
15.10.2007 21:52 22,1 C 8,2 C 76 % 1015 hPa 0,0 l/m 0,0 km/h (0 Bft)
15.10.2007 21:55 22,1 C 8,0 C 76 % 1015 hPa 0,0 l/m 0,0 km/h (0 Bft)
15.10.2007 21:58 22,1 C 8,0 C 76 % 1015 hPa 0,0 l/m 0,0 km/h (0 Bft)
15.10.2007 22:01 22,1 C 8,0 C 76 % 1015 hPa 0,0 l/m 0,0 km/h (0 Bft)
15.10.2007 22:04 22,1 C 8,0 C 76 % 1015 hPa 0,0 l/m 0,0 km/h (0 Bft)
15.10.2007 22:07 22,1 C 8,0 C 76 % 1015 hPa 0,0 l/m 0,0 km/h (0 Bft)
15.10.2007 22:10 22,1 C 8,0 C 76 % 1015 hPa 0,0 l/m 0,0 km/h (0 Bft)
15.10.2007 22:13 22,1 C 8,0 C 76 % 1015 hPa 0,0 l/m 0,0 km/h (0 Bft)
15.10.2007 22:16 22,1 C 8,0 C 77 % 1015 hPa 0,0 l/m 0,0 km/h (0 Bft)
15.10.2007 22:19 22,0 C 7,9 C 76 % 1015 hPa 0,0 l/m 0,0 km/h (0 Bft)
15.10.2007 22:22 22,0 C 7,8 C 76 % 1016 hPa 0,0 l/m 0,0 km/h (0 Bft)
15.10.2007 22:25 22,0 C 7,7 C 76 % 1015 hPa 0,0 l/m 0,0 km/h (0 Bft)
15.10.2007 22:28 22,0 C 7,7 C 77 % 1015 hPa 0,0 l/m 0,0 km/h (0 Bft)
15.10.2007 22:31 22,0 C 7,6 C 77 % 1016 hPa 0,0 l/m 0,0 km/h (0 Bft)
15.10.2007 22:34 22,0 C 7,6 C 77 % 1016 hPa 0,0 l/m 0,0 km/h (0 Bft)
15.10.2007 22:37 22,0 C 7,6 C 77 % 1016 hPa 0,0 l/m 0,0 km/h (0 Bft)
15.10.2007 22:40 22,0 C 7,6 C 78 % 1016 hPa 0,0 l/m 0,0 km/h (0 Bft)
15.10.2007 22:43 22,0 C 7,6 C 78 % 1016 hPa 0,0 l/m 0,0 km/h (0 Bft)
15.10.2007 22:46 22,0 C 7,6 C 78 % 1016 hPa 0,0 l/m 0,0 km/h (0 Bft)
15.10.2007 22:49 21,9 C 7,5 C 78 % 1016 hPa 0,0 l/m 0,0 km/h (0 Bft)
15.10.2007 22:52 21,9 C 7,5 C 78 % 1016 hPa 0,0 l/m 0,0 km/h (0 Bft)
15.10.2007 22:55 21,9 C 7,5 C 78 % 1016 hPa 0,0 l/m 0,0 km/h (0 Bft)
15.10.2007 22:58 21,8 C 7,4 C 78 % 1016 hPa 0,0 l/m 0,0 km/h (0 Bft)
15.10.2007 23:01 21,8 C 7,4 C 79 % 1016 hPa 0,0 l/m 0,0 km/h (0 Bft)
15.10.2007 23:04 21,8 C 7,4 C 79 % 1016 hPa 0,0 l/m 0,0 km/h (0 Bft)
15.10.2007 23:07 21,8 C 7,3 C 78 % 1016 hPa 0,0 l/m 0,0 km/h (0 Bft)
15.10.2007 23:10 21,8 C 7,2 C 79 % 1016 hPa 0,0 l/m 0,0 km/h (0 Bft)
15.10.2007 23:13 21,8 C 7,2 C 79 % 1016 hPa 0,0 l/m 0,0 km/h (0 Bft)
15.10.2007 23:16 21,8 C 7,2 C 79 % 1016 hPa 0,0 l/m 0,0 km/h (0 Bft)
15.10.2007 23:19 21,8 C 7,3 C 80 % 1016 hPa 0,0 l/m 0,0 km/h (0 Bft)
15.10.2007 23:22 21,8 C 7,3 C 80 % 1016 hPa 0,0 l/m 0,0 km/h (0 Bft)
15.10.2007 23:25 21,8 C 7,3 C 80 % 1016 hPa 0,0 l/m 0,0 km/h (0 Bft)
15.10.2007 23:28 21,8 C 7,3 C 80 % 1016 hPa 0,0 l/m 0,0 km/h (0 Bft)
15.10.2007 23:31 21,8 C 7,3 C 80 % 1016 hPa 0,0 l/m 0,0 km/h (0 Bft)
15.10.2007 23:34 21,8 C 7,2 C 80 % 1016 hPa 0,0 l/m 0,0 km/h (0 Bft)
15.10.2007 23:37 21,8 C 7,2 C 80 % 1016 hPa 0,0 l/m 0,0 km/h (0 Bft)
15.10.2007 23:40 21,8 C 7,2 C 80 % 1016 hPa 0,0 l/m 0,0 km/h (0 Bft)
15.10.2007 23:43 21,8 C 7,2 C 80 % 1016 hPa 0,0 l/m 0,0 km/h (0 Bft)
15.10.2007 23:46 21,8 C 7,1 C 80 % 1016 hPa 0,0 l/m 0,0 km/h (0 Bft)
15.10.2007 23:49 21,8 C 7,0 C 80 % 1016 hPa 0,0 l/m 0,0 km/h (0 Bft)
15.10.2007 23:52 21,8 C 6,9 C 80 % 1016 hPa 0,0 l/m 0,0 km/h (0 Bft)
15.10.2007 23:55 21,8 C 6,9 C 80 % 1016 hPa 0,0 l/m 0,0 km/h (0 Bft)
15.10.2007 23:58 21,8 C 6,9 C 81 % 1016 hPa 0,0 l/m 0,0 km/h (0 Bft)
_ Min-Zeit 14:40 07:03 14:46 15:28 - 00:12
Minimum _ 21,3 C 3,0 C 59 % 1015 hPa - 0,0 km/h (0 Bft)
_ Max-Zeit 16:52 16:49 23:58 00:00 00:00 09:39
Maximum _ 22,3 C 13,9 C 81 % 1018 hPa 0,0 l/m 13,6 km/h
O-SO (3 Bft)
Durchschnitt _ 22,0 C 7,8 C 71 % 1017 hPa #0,0 l/m 2,8 km/h (1 Bft)